User: anonymous   Login
Location: Leeds
(37.2390°N, 113.3580°W)
Time: 03:16:29
(UTC-07:00)
Language:

SL-08 RB Rocket - Orbit

View from above orbital plane
View from above orbital plane
View from above satellite
View from above satellite

Ground track
Ground track

The orbit data is extracted from the following two-line orbital elements,

1 26387U 00033D   16339.11061762  .00000108  00000-0  27176-4 0  9994
2 26387  97.9984  42.1187 0025462 235.3203 181.1571 14.68221519879258
Epoch (UTC): 04 December 2016 02:39:17
Eccentricity: 0.0025462
inclination: 97.9984°
perigee height: 649 km
apogee height: 684 km
right ascension of ascending node: 42.1187°
argument of perigee: 235.3203°
revolutions per day: 14.68221519
mean anomaly at epoch: 181.1571°
orbit number at epoch: 87925

The dashed part of the orbit path shows where the satellite is in the earth's shadow,  

DLR